Location: Unspecified
(0.0000°N, 0.0000°E)
Time: 19:18:58
(UTC+00:00)

Altair - Pass Details

Date: 24 November 2019
Orbit: 1502 x 1682 km, 47.2° (Epoch: 05 December)

Event Time Altitude Azimuth Distance (km) Brightness Sun altitude
Rises 23:12:30 0° 236° (SW) 4,810 10.4 -67.7°
Enters shadow 23:13:40 - 238° (WSW) 4,454 10.1 -67.8°
Reaches altitude 10° 23:15:53 10° 243° (WSW) 3,796 - -68.0°
Maximum altitude 23:24:41 41° 310° (NW) 2,110 - -68.7°
Drops below altitude 10° 23:33:14 10° 17° (NNE) 3,670 - -69.1°
Sets 23:36:29 0° 25° (NNE) 4,636 - -69.2°
